Location: Kalberh�ni
(46.4610°N, 7.2453°E)
Time: 06:16:43
(UTC+00:00)

Cosmos 2123 Rocket - Pass Details

Date: 20 June 2021
Orbit: 961 x 992 km, 82.9° (Epoch: 28 July)

Event Time Altitude Azimuth Distance (km) Brightness Sun altitude
Exits shadow 21:29:47 - 199° (SSW) 3,019 6.2 -14.8°
Reaches altitude 10° 21:30:33 10° 200° (SSW) 2,738 6.0 -14.8°
Maximum altitude 21:36:47 64° 281° (WNW) 1,092 4.4 -15.3°
Drops below altitude 10° 21:43:06 10° 3° (N) 2,766 7.3 -15.8°
Sets 21:45:40 0° 7° (N) 3,720 8.1 -16.0°
